Culdrose, United Kingdom

2:26 AM BST on July 27, 2017 (GMT +0100)
Culdrose Navy

Weather History for EGDR - November, 2012

Change the Weather History Date:

Sunday, November 25, 2012

  Actual Average Record
Temperature  
Mean Temperature 50 °F -  
Max Temperature 53 °F 48 °F 55 °F (1997)
Min Temperature 46 °F 40 °F 32 °F (2005)
Degree Days  
Heating Degree Days 16    
Moisture  
Dew Point 47 °F    
Average Humidity 88    
Maximum Humidity 94    
Minimum Humidity 73    
Precipitation  
Precipitation 0.24 in - - ()
Sea Level Pressure  
Sea Level Pressure 29.61 in    
Wind  
Wind Speed 17 mph ()    
Max Wind Speed 25 mph    
Max Gust Speed 47 mph    
Visibility 7.0 miles    
Events Rain    
Averages and records for this station are not official NWS values.
T = Trace of Precipitation, MM = Missing Value Source: Averaged Metar Reports

Daily Weather History Graph

Daily Weather History Graph

Search for Another Location

Airport or City:

Trip Planner

Search our weather history database for the weather conditions in past years. The results will help you decide how hot, cold, wet, or windy it might be!

Date:

Astronomy

Nov. 25, 2012 Rise Set
Actual Time 7:50 AM GMT 4:25 PM GMT
Civil Twilight 7:13 AM GMT 5:02 PM GMT
Nautical Twilight 6:32 AM GMT 5:42 PM GMT
Astronomical Twilight 5:54 AM GMT 6:21 PM GMT
Moon 2:46 PM GMT (11/25) 4:37 AM GMT (11/25)
Length of Visible Light 9h 49m
Length of Day
8h 35m
Waxing Gibbous, 91% of the Moon is Illuminated
Nov 25
Waxing Gibbous
Nov 28
Full
Dec 6
Last Quarter
Dec 13
New
Dec 20
First Quarter

Hourly Weather History & Observations

Time (GMT) Temp. Windchill Dew Point Humidity Pressure Visibility Wind Dir Wind Speed Gust Speed Precip Events Conditions
12:50 AM 46.4 °F 38.7 °F 41.0 °F 81% 29.68 in 6.2 mi WNW 20.7 mph 43.7 mph N/A   Mostly Cloudy
1:50 AM 46.4 °F 39.0 °F 42.8 °F 87% 29.71 in 6.2 mi WNW 19.6 mph 33.4 mph N/A   Mostly Cloudy
2:50 AM 47 °F - 41 °F 73% 29.75 in 16 mi WNW 19.6 mph - -   Partly Cloudy
2:50 AM 46.4 °F 39.0 °F 41.0 °F 81% 29.74 in 6.2 mi WNW 19.6 mph 32.2 mph N/A   Partly Cloudy
3:50 AM 48.2 °F - 42.8 °F 82% 29.74 in 6.2 mi West 18.4 mph 29.9 mph N/A   Scattered Clouds
4:50 AM 48.2 °F - 44.6 °F 87% 29.74 in 6.2 mi West 15.0 mph 28.8 mph N/A   Partly Cloudy
5:50 AM 49 °F - 46 °F 85% 29.75 in 16 mi West 11.5 mph - -   Partly Cloudy
5:50 AM 48.2 °F - 46.4 °F 93% 29.74 in 6.2 mi West 11.5 mph 26.5 mph N/A   Scattered Clouds
6:50 AM 50.0 °F - 46.4 °F 87% 29.74 in 6.2 mi WSW 16.1 mph 29.9 mph N/A   Scattered Clouds
7:50 AM 50.0 °F - 48.2 °F 94% 29.71 in 6.2 mi WSW 19.6 mph 32.2 mph N/A   Mostly Cloudy
8:50 AM 50 °F - 48 °F 92% 29.74 in 10 mi SW 23.0 mph - - Rain Light Rain Showers
8:50 AM 50.0 °F - 48.2 °F 94% 29.71 in 6.2 mi SW 23.0 mph 34.5 mph N/A   Mostly Cloudy
9:50 AM 51.8 °F - 48.2 °F 88% 29.71 in 6.2 mi SW 21.9 mph 34.5 mph N/A   Mostly Cloudy
10:50 AM 51.8 °F - 50.0 °F 94% 29.71 in 6.2 mi SW 23.0 mph 36.8 mph N/A   Mostly Cloudy
11:50 AM 53 °F - 50 °F 87% 29.68 in 7 mi SW 24.2 mph - -   Mostly Cloudy
11:50 AM 53.6 °F - 50.0 °F 88% 29.68 in 6.2 mi SW 24.2 mph 39.1 mph N/A   Mostly Cloudy
12:50 PM 53.6 °F - 50.0 °F 88% 29.62 in 6.2 mi SW 25.3 mph 41.4 mph N/A   Mostly Cloudy
1:50 PM 53.6 °F - 50.0 °F 88% 29.59 in 6.2 mi SSW 23.0 mph 44.9 mph N/A   Mostly Cloudy
2:50 PM 53 °F - 51 °F 89% 29.57 in 4 mi SSW 24.2 mph - - Rain Light Rain Showers
2:50 PM 53.6 °F - 50.0 °F 88% 29.56 in 3.7 mi SSW 24.2 mph 41.4 mph N/A   Mostly Cloudy
3:50 PM 51.8 °F - 50.0 °F 94% 29.53 in 1.0 mi SSW 25.3 mph 47.2 mph N/A Rain Rain
4:50 PM 48.2 °F - 46.4 °F 93% 29.50 in 0.9 mi WSW 13.8 mph 28.8 mph N/A Rain Heavy Rain
5:50 PM 48 °F - 46 °F 91% 29.51 in 12 mi SW 16.1 mph - - Rain Light Rain
5:50 PM 48.2 °F - 46.4 °F 93% 29.50 in 6.2 mi SW 16.1 mph 28.8 mph N/A   Overcast
6:50 PM 48.2 °F - 46.4 °F 93% 29.47 in 5.0 mi SW 18.4 mph 29.9 mph N/A Rain Rain Showers
7:50 PM 46.4 °F 40.4 °F 44.6 °F 93% 29.47 in 6.2 mi WSW 13.8 mph - N/A   Mostly Cloudy
8:50 PM 49 °F - 46 °F 85% 29.48 in 12 mi SW 15.0 mph - -   Partly Cloudy
8:50 PM 50.0 °F - 46.4 °F 87% 29.44 in 6.2 mi SW 15.0 mph - N/A   Scattered Clouds
9:50 PM 48.2 °F - 46.4 °F 93% 29.44 in 6.2 mi SW 16.1 mph - N/A   Scattered Clouds
10:50 PM 48.2 °F - 44.6 °F 87% 29.44 in 6.2 mi WSW 17.3 mph - N/A   Scattered Clouds
11:50 PM 49 °F - 46 °F 83% 29.43 in 12 mi SW 16.1 mph - -   Partly Cloudy
11:50 PM 50.0 °F - 46.4 °F 87% 29.42 in 6.2 mi SW 16.1 mph 28.8 mph N/A   Mostly Cloudy